Weather History for McAllen, TX

Change the Weather History Date:

Tuesday, April 2, 2013

  Actual Average Record
Temperature  
Mean Temperature 79 °F 74 °F  
Max Temperature 87 °F 86 °F 100 °F (1970)
Min Temperature 71 °F 63 °F 43 °F (2005)
Degree Days  
Heating Degree Days 0 1  
Month to date heating degree days 0 2  
Since 1 July heating degree days 312 573  
Cooling Degree Days 14 10  
Month to date cooling degree days 29 20  
Year to date cooling degree days 497 397  
Growing Degree Days 28 (Base 50)    
Moisture  
Dew Point 68 °F    
Average Humidity 73    
Maximum Humidity 90    
Minimum Humidity 55    
Precipitation  
Precipitation T in 0.02 in 0.33 in (1992)
Month to date precipitation T 0.05  
Year to date precipitation 0.99 3.24  
Sea Level Pressure  
Sea Level Pressure 29.85 in    
Wind  
Wind Speed 13 mph (SE)    
Max Wind Speed 21 mph    
Max Gust Speed 24 mph    
Visibility 10 miles    
Events Rain    
T = Trace of Precipitation, MM = Missing Value Source: NWS Daily Summary

Daily Weather History Graph

Daily Weather History Graph

Search for Another Location

Airport:

Trip Planner

Search our weather history database for the weather conditions in past years. The results will help you decide how hot, cold, wet, or windy it might be!

Date:

Astronomy

Apr. 02, 2013 Rise Set
Actual Time 7:22 AM CDT 7:50 PM CDT
Civil Twilight 6:59 AM CDT 8:13 PM CDT
Nautical Twilight 6:32 AM CDT 8:40 PM CDT
Astronomical Twilight 6:04 AM CDT 9:08 PM CDT
Moon 1:33 AM CDT (4/2) 12:37 PM CDT (4/2)
Length of Visible Light 13h 14m
Length of Day
12h 27m
Waning Gibbous, 55% of the Moon is Illuminated
Apr 2
Waning Gibbous
Apr 2
Last Quarter
Apr 10
New
Apr 18
First Quarter
Apr 25
Full

Hourly Weather History & Observations

Time (CDT) Temp. Heat Index Dew Point Humidity Pressure Visibility Wind Dir Wind Speed Gust Speed Precip Events Conditions
12:53 AM 73.0 °F - 66.9 °F 81% 29.95 in 10.0 mi SE 11.5 mph - N/A   Clear
1:53 AM 72.0 °F - 66.9 °F 84% 29.92 in 10.0 mi SE 15.0 mph - N/A   Clear
2:53 AM 72.0 °F - 66.9 °F 84% 29.90 in 10.0 mi SE 15.0 mph - N/A   Clear
3:53 AM 72.0 °F - 66.9 °F 84% 29.88 in 10.0 mi SSE 10.4 mph - N/A   Partly Cloudy
4:53 AM 72.0 °F - 68.0 °F 87% 29.87 in 10.0 mi SE 9.2 mph - N/A   Partly Cloudy
5:22 AM 71.6 °F - 68.0 °F 88% 29.87 in 10.0 mi SE 11.5 mph - 0.00 in   Mostly Cloudy
5:53 AM 72.0 °F - 68.0 °F 87% 29.88 in 10.0 mi SE 12.7 mph - 0.00 in   Mostly Cloudy
6:53 AM 72.0 °F - 68.0 °F 87% 29.87 in 10.0 mi ESE 9.2 mph - N/A   Mostly Cloudy
7:53 AM 72.0 °F - 68.0 °F 87% 29.89 in 10.0 mi ESE 11.5 mph - N/A   Overcast
8:44 AM 73.4 °F - 68.0 °F 83% 29.91 in 10.0 mi ESE 11.5 mph - N/A   Overcast
8:53 AM 73.0 °F - 69.1 °F 87% 29.91 in 10.0 mi ESE 12.7 mph - N/A   Overcast
9:33 AM 73.4 °F - 69.8 °F 88% 29.91 in 10.0 mi SE 15.0 mph - N/A   Overcast
9:46 AM 75.2 °F - 69.8 °F 83% 29.91 in 10.0 mi SE 13.8 mph - N/A   Overcast
9:53 AM 75.0 °F - 69.1 °F 82% 29.91 in 10.0 mi SE 12.7 mph - N/A   Overcast
10:32 AM 77.0 °F - 69.8 °F 78% 29.90 in 10.0 mi SE 16.1 mph - N/A   Overcast
10:53 AM 79.0 °F - 69.1 °F 72% 29.89 in 10.0 mi SE 13.8 mph - N/A   Overcast
11:08 AM 80.6 °F 83.9 °F 69.8 °F 70% 29.90 in 10.0 mi ESE 13.8 mph - N/A   Mostly Cloudy
11:20 AM 80.6 °F 83.2 °F 68.0 °F 65% 29.90 in 10.0 mi SE 16.1 mph - N/A   Overcast
11:53 AM 81.0 °F 83.8 °F 68.0 °F 65% 29.89 in 10.0 mi ESE 15.0 mph - N/A   Overcast
12:53 PM 80.1 °F 82.9 °F 69.1 °F 69% 29.88 in 10.0 mi SE 15.0 mph - N/A   Overcast
1:09 PM 80.6 °F 83.9 °F 69.8 °F 70% 29.87 in 10.0 mi ESE 16.1 mph 21.9 mph 0.00 in Rain Light Rain
1:18 PM 80.6 °F 83.9 °F 69.8 °F 70% 29.87 in 10.0 mi ESE 11.5 mph 21.9 mph 0.00 in   Overcast
1:29 PM 80.6 °F 83.9 °F 69.8 °F 70% 29.86 in 10.0 mi East 15.0 mph - 0.00 in   Overcast
1:36 PM 80.6 °F 83.9 °F 69.8 °F 70% 29.86 in 10.0 mi ESE 13.8 mph - 0.00 in   Overcast
1:53 PM 80.1 °F 82.9 °F 69.1 °F 69% 29.85 in 10.0 mi ESE 16.1 mph 20.7 mph 0.00 in   Overcast
2:53 PM 84.0 °F 87.8 °F 69.1 °F 61% 29.81 in 9.0 mi SE 16.1 mph - 0.00 in   Mostly Cloudy
3:53 PM 86.0 °F 89.4 °F 68.0 °F 55% 29.77 in 10.0 mi SE 16.1 mph - N/A   Mostly Cloudy
4:53 PM 84.9 °F 87.6 °F 66.9 °F 55% 29.74 in 10.0 mi SE 15.0 mph - N/A   Scattered Clouds
5:53 PM 84.9 °F 87.6 °F 66.9 °F 55% 29.73 in 10.0 mi SE 18.4 mph - N/A   Mostly Cloudy
6:53 PM 82.9 °F 85.4 °F 66.9 °F 58% 29.73 in 10.0 mi SE 15.0 mph - N/A   Partly Cloudy
7:53 PM 80.1 °F 82.3 °F 66.9 °F 64% 29.74 in 10.0 mi SE 11.5 mph - N/A   Clear
8:53 PM 78.1 °F - 68.0 °F 71% 29.75 in 10.0 mi SE 9.2 mph - N/A   Clear
9:53 PM 75.9 °F - 68.0 °F 76% 29.76 in 10.0 mi SE 9.2 mph - N/A   Clear
10:28 PM 75.2 °F - 68.0 °F 78% 29.78 in 10.0 mi SE 8.1 mph - N/A   Mostly Cloudy
10:53 PM 73.9 °F - 69.1 °F 85% 29.79 in 10.0 mi ESE 8.1 mph - N/A   Mostly Cloudy
11:53 PM 73.9 °F - 69.1 °F 85% 29.80 in 10.0 mi SE 9.2 mph - N/A   Overcast